カタログに戻る

STARLINK-35520

運用中通信VLEO
NORAD 66133·PAYLOAD·🇺🇸 United States

打ち上げ Oct 22, 2025 から Vandenberg Space Force Base

Loading…

次のパス (今後24時間)

TLE

最新Source: CelesTrak SupGP

元期: Sep 14, 2026, 21:03 UTC

1 66133C 25237V   26257.87756944  .00048014  00000+0  14185-2 0  2574
2 66133  53.1572 237.7007 0001268  96.8563 155.6706 15.34369623    17

AllMySatでSTARLINK-35520をリアルタイム追跡

Download on the App Store